Weather History for KJDN - January, 2013

Change the Weather History Date:

Wednesday, January 16, 2013

  Actual Average Record
Temperature  
Mean Temperature 37 °F 17 °F  
Max Temperature 41 °F 29 °F 58 °F (1974)
Min Temperature 33 °F 5 °F -38 °F (1950)
Degree Days  
Heating Degree Days 28 48  
Month to date heating degree days 744 775  
Since 1 July heating degree days 3843 4225  
Cooling Degree Days 0 0  
Month to date cooling degree days 0 0  
Year to date cooling degree days 0 0  
Moisture  
Dew Point 27 °F    
Average Humidity 69    
Maximum Humidity 82    
Minimum Humidity 55    
Precipitation  
Precipitation 0.00 in 0.00 in 0.17 in (1952)
Month to date precipitation 0.23 0.14  
Year to date precipitation 0.23 0.14  
Snow  
Snow 0.00 in - - ()
Month to date snowfall 0.0  
Since 1 July snowfall 0.0  
Snow Depth 0.00 in    
Sea Level Pressure  
Sea Level Pressure 30.13 in    
Wind  
Wind Speed 12 mph (West)    
Max Wind Speed 21 mph    
Max Gust Speed 26 mph    
T = Trace of Precipitation, MM = Missing Value Source: NWS Daily Summary

Daily Weather History Graph

Daily Weather History Graph

Search for Another Location

Airport or City:

Trip Planner

Search our weather history database for the weather conditions in past years. The results will help you decide how hot, cold, wet, or windy it might be!

Date:

Astronomy

Jan. 16, 2013 Rise Set
Actual Time 7:49 AM MST 4:46 PM MST
Civil Twilight 7:15 AM MST 5:20 PM MST
Nautical Twilight 6:37 AM MST 5:58 PM MST
Astronomical Twilight 6:00 AM MST 6:35 PM MST
Moon 10:01 AM MST (1/16) 11:09 PM MST (1/16)
Length of Visible Light 10h 05m
Length of Day
8h 57m
Waxing Crescent, 29% of the Moon is Illuminated
Jan 16
Waxing Crescent
Jan 18
First Quarter
Jan 26
Full
Feb 3
Last Quarter
Feb 10
New

Hourly Weather History & Observations

Time (MST) Temp. Windchill Dew Point Humidity Pressure Visibility Wind Dir Wind Speed Gust Speed Precip Events Conditions
12:48 AM 37.0 °F 27.4 °F 26.1 °F 65% 29.96 in - West 17.3 mph 25.3 mph N/A   Unknown
1:48 AM 37.0 °F 26.7 °F 25.0 °F 62% 29.96 in - West 19.6 mph - N/A   Unknown
2:48 AM 37.0 °F 27.4 °F 25.0 °F 62% 29.96 in - West 17.3 mph 26.5 mph N/A   Unknown
3:48 AM 37.0 °F 27.4 °F 25.0 °F 62% 29.97 in - West 17.3 mph - N/A   Unknown
4:48 AM 37.9 °F 28.2 °F 24.1 °F 57% 29.98 in - West 18.4 mph 25.3 mph N/A   Unknown
5:48 AM 37.0 °F 28.9 °F 24.1 °F 59% 29.99 in - West 12.7 mph - N/A   Unknown
6:48 AM 37.0 °F 28.9 °F 24.1 °F 59% 30.01 in - West 12.7 mph - N/A   Unknown
7:48 AM 35.1 °F 26.9 °F 24.1 °F 64% 30.06 in - WNW 11.5 mph - N/A   Unknown
8:48 AM 36.0 °F 28.5 °F 25.0 °F 64% 30.09 in - WNW 10.4 mph - N/A   Unknown
9:48 AM 37.9 °F 30.0 °F 25.0 °F 60% 30.12 in - WNW 12.7 mph - N/A   Unknown
10:48 AM 39.0 °F 31.8 °F 27.0 °F 62% 30.14 in - West 11.5 mph - N/A   Unknown
11:48 AM 41.0 °F 33.5 °F 27.0 °F 57% 30.14 in - West 13.8 mph - N/A   Unknown
12:48 PM 41.0 °F 33.9 °F 27.0 °F 57% 30.14 in - West 12.7 mph - N/A   Unknown
1:48 PM 39.9 °F 32.9 °F 28.0 °F 63% 30.14 in - West 11.5 mph - N/A   Unknown
2:48 PM 41.0 °F 34.7 °F 28.9 °F 62% 30.17 in - West 10.4 mph - N/A   Unknown
3:48 PM 39.9 °F 33.9 °F 30.0 °F 68% 30.19 in - West 9.2 mph - N/A   Unknown
4:48 PM 37.9 °F 32.7 °F 28.9 °F 70% 30.21 in - West 6.9 mph - N/A   Unknown
5:48 PM 37.0 °F 29.8 °F 28.9 °F 73% 30.23 in - NW 10.4 mph - N/A   Unknown
6:48 PM 35.1 °F 30.1 °F 28.9 °F 78% 30.26 in - West 5.8 mph - N/A   Unknown
7:48 PM 35.1 °F 29.3 °F 28.9 °F 78% 30.27 in - WNW 6.9 mph - N/A   Unknown
8:48 PM 34.0 °F 27.2 °F 28.0 °F 79% 30.28 in - WNW 8.1 mph - N/A   Unknown
9:48 PM 34.0 °F 26.6 °F 28.0 °F 79% 30.29 in - West 9.2 mph - N/A   Unknown
10:48 PM 34.0 °F 28.0 °F 27.0 °F 75% 30.30 in - West 6.9 mph - N/A   Unknown
11:48 PM 34.0 °F 28.0 °F 28.0 °F 79% 30.31 in - WNW 6.9 mph - N/A   Unknown